カタログに戻る

SL-12 DEB

LostHEO
NORAD 52982·DEBRIS·🇷🇺 Russia

打ち上げ Dec 25, 2007 から Baikonur Cosmodrome

Loading…

次のパス (今後24時間)

TLE

古いSource: Space-Track

元期: Feb 6, 2023, 19:05 UTC

1 52982U 07065N   23037.79569372  .00042275  00000-0  10382+0 0  9990
2 52982  64.6490 195.5470 5164366 325.8104   9.6839  5.07046016 13303

AllMySatでSL-12 DEBをリアルタイム追跡

Download on the App Store